Theta_e
311 311 311 311 311 312 312 312 312 313 313 313 313 313 314 314 314 314 315 315 316 317 318 318 319 320 319 323 332 338 341 343 341 341 340 343 342 351 351 350 353 350 351 351 351 349 343
311 311 311 311 311 312 312 312 313 313 313 314 314 314 314 314 314 314 315 315 315 316 317 318 319 319 318 327 337 340 340 344 343 341 340 342 347 350 346 346 353 347 350 350 350 347 343
312 311 311 311 311 312 312 312 312 313 313 314 314 314 314 314 315 315 315 315 315 316 316 317 318 317 317 328 335 341 344 343 342 340 340 345 352 349 350 350 351 349 353 350 347 347 345
313 313 313 313 313 313 313 312 312 312 313 313 313 313 314 314 314 315 315 315 315 315 316 316 317 317 319 334 334 334 336 343 340 340 342 347 352 351 350 350 350 352 352 351 348 349 348
314 314 313 313 313 313 313 313 313 313 313 313 313 313 313 313 314 315 315 315 315 316 316 316 317 318 326 333 334 334 335 344 341 341 343 348 351 350 349 350 352 349 356 351 350 348 348
314 314 313 313 314 314 313 313 313 313 314 314 314 314 314 314 314 314 315 315 316 316 315 316 317 324 329 334 333 333 337 344 341 342 345 349 350 347 346 348 358 355 353 350 351 348 345
314 314 315 314 313 313 314 313 313 313 312 313 313 314 314 314 314 314 315 316 320 327 317 323 326 324 331 332 334 335 340 343 341 343 347 349 348 351 348 347 349 347 350 350 348 348 349
314 314 315 315 313 312 312 313 313 313 313 313 313 313 314 314 314 314 314 315 319 323 323 324 326 327 328 328 330 335 342 343 343 347 348 349 351 349 349 349 348 350 351 350 349 349 348
313 314 314 314 314 310 310 311 312 312 314 314 313 313 314 314 315 315 320 318 318 321 322 324 324 327 329 329 330 339 343 343 345 350 350 348 350 349 350 349 351 347 350 349 350 348 349
313 313 314 314 314 310 308 309 311 311 312 313 313 313 313 315 314 319 323 322 323 322 323 326 324 325 327 330 331 336 342 344 345 347 347 347 348 345 348 349 346 350 347 349 350 348 350
312 312 313 313 314 313 308 307 309 310 311 312 313 313 313 312 315 317 322 323 322 323 327 330 326 328 328 331 331 333 334 345 346 345 345 349 347 346 346 346 348 351 349 348 347 348 341
312 311 312 313 314 314 309 307 308 309 310 311 313 313 313 311 314 317 317 321 322 325 328 330 328 327 327 329 331 332 335 338 344 345 345 344 341 345 346 348 348 347 349 347 346 345 346
311 312 311 313 314 314 309 306 307 308 309 310 313 313 312 312 315 321 322 322 323 326 329 329 328 328 328 329 330 331 334 338 340 342 343 344 343 341 342 348 348 350 351 348 347 343 345
309 311 311 311 314 314 309 306 307 308 309 309 312 313 314 314 315 315 319 322 325 327 325 327 328 327 327 328 330 331 333 337 338 339 341 344 350 347 346 345 347 347 347 344 356 357 353
308 309 309 310 313 313 309 307 307 308 308 309 312 313 315 316 315 315 320 322 325 327 328 328 328 328 327 328 330 331 332 335 337 337 340 341 341 345 345 345 343 346 347 346 345 349 351
308 307 308 309 311 313 311 308 307 308 308 308 310 312 315 318 315 318 322 321 322 324 324 325 325 330 330 327 328 331 332 334 338 337 337 340 342 346 346 344 344 346 344 346 349 357 357
308 307 308 309 310 312 312 310 308 307 308 309 312 325 324 322 322 319 322 322 322 323 323 324 325 328 328 328 329 330 333 334 335 338 337 338 339 347 346 348 347 346 345 342 340 344 351
308 307 308 309 310 311 312 311 309 307 308 308 315 324 322 323 320 320 320 321 322 322 323 323 326 326 325 327 329 329 331 334 336 337 338 339 338 346 348 344 343 345 345 344 338 341 341
308 308 308 308 310 310 311 312 311 309 308 309 313 322 325 323 324 323 323 322 322 322 323 323 324 326 325 324 326 330 331 333 336 337 339 339 342 352 348 347 344 345 344 342 336 335 337
307 308 309 308 308 310 311 311 312 310 309 311 317 328 326 326 325 325 325 324 323 323 323 324 324 325 324 324 323 329 329 332 332 332 333 334 336 344 350 352 347 345 343 340 337 337 337
308 308 309 309 308 309 311 311 312 310 309 317 322 325 323 328 326 326 325 324 324 326 325 324 325 324 322 323 326 327 328 329 332 330 333 331 334 337 334 338 343 344 342 341 339 334 332
310 311 311 310 309 309 310 311 312 312 309 320 319 318 317 318 324 324 325 325 325 325 326 327 325 324 322 322 326 327 328 329 332 332 332 329 332 335 333 331 330 342 341 340 336 336 333
312 312 312 311 311 309 310 310 311 312 311 312 312 317 318 319 321 322 324 327 328 327 326 326 327 326 326 326 327 329 329 328 326 328 330 328 328 332 330 332 331 330 332 334 334 333 334
312 313 313 313 312 311 310 309 310 311 311 311 313 317 320 320 321 323 323 325 326 327 330 330 329 330 329 329 329 330 330 328 327 327 327 330 331 332 331 333 334 331 331 333 335 335 333
311 313 312 313 313 313 312 310 309 310 311 312 313 316 318 318 319 319 321 322 323 324 327 329 329 329 329 329 329 331 329 329 329 329 328 328 333 333 333 335 334 335 334 334 336 337 335
312 313 313 313 313 313 313 313 311 309 310 312 314 317 319 317 319 318 317 321 323 323 324 327 327 327 329 328 329 333 331 331 330 329 327 326 328 334 334 336 336 334 334 334 333 339 338
313 313 314 314 314 313 312 313 313 310 309 310 315 317 317 318 318 318 318 319 320 322 322 325 323 329 328 329 329 329 329 328 327 328 327 327 328 329 330 331 333 337 334 333 334 339 341
313 313 313 314 314 313 313 312 313 311 309 309 312 317 316 317 317 317 318 319 320 321 323 322 324 329 329 330 329 329 331 329 329 327 330 328 329 328 331 334 336 337 338 344 342 335 346
313 314 314 314 313 312 312 311 312 313 310 309 310 312 315 315 315 314 313 314 317 320 319 320 321 324 332 334 334 335 336 337 337 337 332 337 334 333 335 335 336 336 335 335 336 334 345
Wind_Speed
12 12 12 12 13 14 14 14 14 14 15 15 16 16 16 17 17 17 16 16 16 15 15 15 15 16 17 10 19 11 7 5 10 11 12 14 15 26 13 20 31 13 14 19 30 15 16
13 13 13 13 14 14 15 15 16 16 17 17 17 18 18 18 18 18 17 17 16 15 15 15 14 16 15 8 4 11 10 10 10 12 15 14 3 19 24 20 22 8 29 33 24 10 23
13 14 14 14 15 15 15 16 16 17 18 18 18 19 19 19 19 19 18 17 16 15 15 14 14 15 17 29 6 8 11 12 9 15 17 13 8 2 28 13 38 25 22 27 14 19 7
15 15 15 15 16 17 17 17 18 18 19 19 19 19 19 19 20 20 18 17 17 14 14 13 13 13 15 20 16 17 19 10 13 13 16 15 11 11 19 8 7 3 3 6 10 8 11
16 16 17 18 18 18 18 18 19 19 19 19 20 19 19 19 20 20 19 17 16 14 13 12 10 9 16 9 18 14 17 17 17 16 16 15 8 12 15 8 6 7 5 4 6 9 4
17 17 18 18 19 19 19 20 20 20 20 20 20 19 19 18 20 20 18 16 15 15 13 11 10 8 22 17 16 17 16 17 18 14 16 20 12 6 3 4 4 6 5 6 6 2 4
17 18 19 19 20 20 20 20 20 21 21 20 20 19 19 18 18 20 17 13 8 2 13 14 11 20 24 19 17 19 17 17 20 19 8 19 5 5 8 7 10 3 2 6 15 8 4
18 19 19 19 20 20 21 21 21 21 20 20 20 19 18 17 17 17 17 13 11 16 12 21 27 31 37 32 27 24 18 20 20 10 10 4 4 9 18 16 11 5 6 13 17 17 11
20 20 21 21 21 21 21 21 21 22 21 20 20 20 18 16 16 13 12 16 9 10 9 24 31 31 35 26 30 18 22 23 12 11 11 8 3 10 14 14 4 5 10 16 15 17 18
20 22 22 22 22 22 21 21 21 22 22 21 20 20 18 16 10 10 13 13 9 7 4 9 11 26 32 31 18 21 23 20 12 12 13 8 16 11 5 7 15 4 8 25 20 15 15
23 23 22 23 23 23 23 22 21 21 21 21 20 19 16 16 11 15 8 5 5 5 4 7 13 8 27 32 12 18 22 26 15 12 4 4 1 8 13 5 4 6 15 23 20 15 6
23 23 24 24 24 24 25 23 22 21 21 21 19 19 18 14 17 9 10 3 9 1 8 3 11 10 18 24 23 25 22 23 21 14 13 1 4 5 8 19 12 13 6 15 18 7 6
25 25 26 25 26 26 26 25 24 23 22 22 19 17 21 18 14 2 6 9 1 5 8 8 8 10 16 15 17 18 13 12 10 7 13 5 4 13 25 11 11 16 10 7 4 3 2
24 24 24 25 26 27 27 27 27 24 23 24 20 18 20 22 14 13 3 2 6 11 14 6 6 11 12 13 18 17 15 14 13 13 6 13 2 11 15 8 6 7 8 5 4 1 5
24 24 25 25 26 27 27 27 28 26 24 27 21 15 21 15 15 16 4 5 7 6 9 12 14 12 9 12 9 18 19 14 14 16 13 7 10 14 4 4 7 3 6 4 7 5 5
26 26 26 26 26 27 28 29 29 28 25 26 22 19 22 9 14 22 4 6 10 11 17 20 18 5 4 15 14 13 16 17 16 18 15 16 7 6 4 7 4 3 4 3 2 5 3
25 25 26 26 26 27 29 29 30 32 25 20 18 8 2 25 17 10 6 7 10 22 24 8 18 8 10 10 10 15 14 19 17 15 19 18 11 2 3 3 4 7 5 3 3 8 6
24 25 25 27 27 27 28 29 30 32 30 17 4 4 22 29 6 7 8 10 13 22 31 20 11 8 10 12 9 7 17 18 24 19 17 15 9 4 4 5 2 6 7 9 5 5 5
23 25 26 27 28 28 28 28 28 29 33 31 12 9 15 19 4 8 10 19 22 20 21 20 14 7 9 10 7 7 10 10 24 8 15 13 11 4 5 7 7 5 12 14 7 2 8
22 24 25 26 28 29 29 29 27 26 28 22 6 3 10 19 18 11 13 14 18 29 22 26 14 4 8 8 11 7 11 7 13 6 8 2 4 6 6 9 6 13 26 23 9 6 6
22 24 25 25 26 27 29 30 28 26 23 15 3 3 10 3 6 12 14 15 18 18 20 26 3 7 9 8 8 8 10 11 4 3 2 2 1 1 4 13 24 16 10 22 21 13 6
23 24 24 25 26 26 27 29 29 27 22 13 10 8 11 19 19 14 12 17 17 20 16 7 8 9 11 9 8 8 9 8 6 1 2 3 2 5 6 6 6 25 26 26 18 19 7
24 25 25 25 25 25 26 27 27 27 25 10 16 13 11 12 10 10 10 13 15 12 20 20 8 12 12 11 10 14 19 19 9 4 5 7 4 2 5 6 8 8 8 4 4 4 4
24 26 26 27 27 26 25 25 24 24 22 20 14 12 8 6 8 12 22 22 21 10 5 11 20 4 11 9 11 12 22 15 10 10 4 6 6 5 5 3 6 7 7 5 2 4 7
24 25 26 27 27 28 27 24 23 21 20 18 14 7 10 8 15 18 20 20 26 22 14 10 18 16 12 9 4 5 6 6 7 9 11 4 4 2 5 4 6 4 4 4 5 4 8
24 25 26 27 28 28 27 26 24 21 20 18 10 6 12 9 3 18 21 22 11 7 9 13 17 16 10 4 3 2 3 4 5 5 7 8 2 4 1 4 6 8 6 18 8 4 8
23 25 27 28 29 28 27 25 24 22 19 18 10 6 9 15 23 14 8 12 17 13 5 10 19 8 11 0 2 3 7 8 9 8 9 4 4 4 3 4 2 5 8 7 4 4 12
23 27 28 30 30 29 26 24 22 21 20 19 11 7 10 15 34 33 15 15 20 15 5 17 13 5 0 4 4 5 4 7 7 12 9 10 4 5 3 3 2 4 11 6 3 15 21
26 29 31 32 31 28 25 23 21 20 19 20 19 12 15 17 28 30 36 36 29 25 18 8 9 10 7 4 4 4 3 3 6 6 5 1 4 7 6 6 8 25 19 15 12 5 19
Wind_Direction
354 350 347 345 344 341 339 335 328 321 320 318 318 316 315 314 312 310 310 309 308 307 306 305 304 306 317 303 272 277 282 249 222 220 225 247 279 97 89 315 295 237 261 288 270 258 138
349 345 342 340 337 334 331 328 325 321 318 316 315 314 313 311 309 308 307 303 303 303 301 300 299 301 307 263 237 264 274 259 231 225 233 249 272 105 120 230 206 298 307 281 295 180 130
344 341 339 334 332 328 326 324 322 319 317 316 314 314 312 311 308 304 302 300 299 298 296 295 294 295 285 259 260 269 280 271 227 217 243 280 266 63 181 228 210 161 254 274 3 353 41
341 337 334 330 327 325 323 322 319 318 318 316 314 314 313 310 307 303 299 296 294 292 289 286 286 285 265 267 265 260 243 256 250 246 246 261 285 299 226 229 202 220 193 50 330 1 5
341 337 334 330 327 323 320 318 317 316 315 315 313 314 313 311 307 303 298 293 289 283 279 275 279 269 268 270 240 232 238 235 231 239 253 252 269 264 277 278 0 22 1 74 355 354 34
343 340 336 332 327 324 321 318 315 314 314 313 312 312 312 310 307 303 300 292 282 275 268 266 237 284 255 244 234 230 235 228 232 228 241 246 246 241 348 73 192 229 65 2 243 163 19
342 340 338 335 331 325 322 319 316 315 313 311 311 311 310 307 305 304 305 303 287 252 220 215 225 215 263 302 220 231 223 214 231 229 225 235 209 107 115 133 170 305 211 264 246 255 166
345 342 339 337 334 329 325 320 317 313 311 311 308 307 308 307 301 298 295 280 238 325 293 272 263 249 262 273 274 234 208 207 228 220 225 298 170 194 140 140 167 150 77 312 310 275 209
348 345 343 340 338 335 328 323 318 316 312 311 310 308 309 306 299 291 281 273 276 330 289 280 252 242 249 254 260 197 209 211 230 217 233 185 238 182 147 162 243 70 78 286 264 279 221
351 347 344 343 341 338 333 327 322 317 315 311 309 307 310 308 292 251 274 314 316 308 291 260 212 235 237 238 262 222 211 208 234 228 234 262 180 165 189 169 151 99 287 259 262 284 198
353 350 348 344 342 340 337 332 327 323 318 311 306 304 302 304 278 273 318 8 10 270 278 229 191 172 200 211 220 228 236 205 229 240 200 218 17 4 334 212 93 166 225 244 263 271 330
354 352 350 347 344 341 339 335 331 325 319 311 301 299 292 282 272 269 275 5 326 260 245 262 154 185 181 211 222 235 224 233 218 249 257 133 147 160 231 265 128 71 346 273 260 261 273
350 350 351 350 347 344 341 337 333 327 320 311 297 290 281 268 250 278 269 280 215 231 302 202 168 165 185 196 212 224 222 212 198 209 251 109 147 280 252 238 155 120 211 264 297 333 236
349 349 350 350 349 347 345 341 335 330 324 312 297 285 271 261 242 237 284 291 225 248 237 291 202 177 200 191 205 221 233 215 196 223 227 240 175 221 235 188 205 198 235 194 86 229 274
353 352 352 351 351 351 349 345 339 333 331 314 309 294 268 253 223 198 189 225 215 218 266 337 336 174 193 203 223 202 233 225 205 204 228 229 253 186 169 353 134 240 278 234 101 0 25
357 355 354 354 353 352 352 348 343 337 339 322 320 308 266 208 183 176 204 248 249 270 298 324 312 306 250 193 201 209 213 239 207 200 213 252 270 348 60 21 355 156 247 6 61 118 171
357 356 356 356 355 353 353 352 347 342 345 333 329 309 75 162 175 182 222 233 262 270 275 268 294 310 313 318 256 209 211 225 234 206 203 222 235 312 12 106 157 328 329 286 142 140 151
357 358 357 357 357 355 354 354 352 347 347 346 336 270 149 165 160 191 234 240 255 277 289 292 272 292 293 302 312 329 223 205 208 215 218 204 209 159 197 268 163 175 257 296 147 265 234
354 356 357 358 358 357 355 355 355 353 348 347 332 282 184 181 214 229 236 240 255 262 268 274 277 226 268 293 317 326 324 305 220 191 222 215 213 123 17 355 335 298 278 258 227 190 263
350 352 354 355 356 356 357 355 354 355 342 337 316 285 233 201 232 257 263 256 244 245 257 271 285 265 298 274 283 280 304 308 62 44 82 1 158 163 180 195 171 223 249 264 211 226 245
351 351 351 352 354 355 357 357 354 354 349 345 260 341 13 322 309 305 262 274 279 277 248 246 315 296 285 289 289 293 295 304 343 125 83 176 119 80 248 171 200 227 268 267 246 228 196
354 353 351 352 353 354 358 359 358 358 5 20 359 1 331 299 293 304 295 233 256 274 282 246 185 239 268 265 267 283 300 304 270 145 142 357 287 6 325 323 324 190 207 242 245 231 236
5 2 1 359 355 353 356 359 1 1 6 16 348 339 324 295 306 308 293 315 290 276 279 284 253 203 231 257 283 302 315 309 300 305 232 160 150 155 254 303 315 298 250 291 290 63 85
358 357 359 1 360 356 353 354 359 1 3 353 350 339 307 294 313 306 321 318 312 328 321 330 320 308 206 35 1 330 316 301 307 308 310 187 167 143 204 219 234 245 281 284 17 102 128
351 351 353 354 354 354 353 349 349 352 352 348 348 313 324 305 311 309 340 330 327 347 335 319 317 352 2 38 43 345 317 336 305 295 297 321 185 202 158 212 239 257 318 61 151 75 58
346 346 349 350 349 349 347 347 343 342 342 345 350 343 319 299 263 335 314 306 301 328 327 297 308 317 328 25 44 241 256 312 286 291 272 294 255 138 10 171 242 245 116 55 41 52 10
343 342 342 342 341 340 340 339 338 335 335 339 348 325 318 290 278 318 294 311 312 327 300 308 339 321 252 349 318 271 258 223 255 265 272 281 279 213 250 198 202 333 17 30 110 226 68
339 338 336 336 334 333 330 332 331 332 330 331 340 19 319 290 282 275 283 305 308 292 294 331 331 357 99 160 194 248 260 257 234 237 227 234 214 228 195 154 159 39 41 79 144 48 104
332 333 331 331 331 332 329 327 325 327 326 323 321 309 282 274 262 278 275 269 254 248 288 304 297 306 351 27 14 329 301 329 272 259 225 68 237 190 140 168 130 91 99 86 91 60 127